Regional Weather Roundup
Issued by NWS

Home | Current Version | Previous Version | Text Only | Print | Product List | Glossary On
Versions: 1 2 3 4 5 6 7 8 9 10 11 12 13 14 15 16 17 18 19 20 21 22 23 24 25 26 27 28 29 30 31 32 33 34 35 36 37 38 39 40 41 42 43 44 45 46 47 48 49 50
000
ASUS45 KTFX 260410
RWRMT
MONTANA REGIONAL WEATHER ROUNDUP
NATIONAL WEATHER SERVICE GREAT FALLS MT
1000 PM MDT WED APR 25 2018

NOTE: "FAIR" INDICATES FEW OR NO CLOUDS BELOW 12000 FEET WITH NO
SIGNIFICANT WEATHER AND/OR OBSTRUCTIONS TO VISIBILITY.

MTZ001>007-043-260500-
WEST OF THE DIVIDE

CITY           SKY/WX    TMP DP  RH WIND       PRES   REMARKS
KALISPELL      FAIR      48  33  56 N3        30.13R
MISSOULA       FAIR      55  27  34 N3        30.13R
BUTTE          FAIR      47  29  49 NE5       30.23R
MULLAN PASS    FAIR      46  25  43 NW3       30.22R
ANACONDA         N/A     48  28  46 N8        30.23R
DEER LODGE       N/A     45  32  61 NW8       30.25R
HAMILTON         N/A     50  30  46 MISG      30.16R
$$

MTZ008-052>055-260500-
SOUTHWEST MONTANA

CITY           SKY/WX    TMP DP  RH WIND       PRES   REMARKS
BOZEMAN        FAIR      50  30  46 W10G20    30.22R
DILLON         FAIR      44  31  60 E15       30.18R
ENNIS          PTCLDY    45  32  61 N18       30.24R
W YELLOWSTONE  FAIR      43  23  45 N6G12     30.22R
$$

MTZ009-010-012-014-046-048-049-054-260500-
EAST SLOPES AND CENTRAL MONTANA

CITY           SKY/WX    TMP DP  RH WIND       PRES   REMARKS
CUT BANK       FAIR      45  28  51 SE5       30.21R
GREAT FALLS    FAIR      38  32  79 S10       30.23R WCI  31
MALMSTROM AFB  FAIR      40  33  74 SW9       30.23R
HELENA         FAIR      48  34  58 SW8       30.24R
AUGUSTA        FAIR      38  29  70 CALM      30.23R
BOWMANS CRNR   FAIR      44  29  55 SW5       30.22R
CHOTEAU          N/A     43  28  56 SE7       30.24R
FAIRFIELD      FAIR      42  31  66 SE5       30.22R
POWER          FAIR      39  31  71 CALM      30.22R
RAYNESFORD     FAIR      42  31  65 CALM      30.23R
ULM            FAIR      40  32  75 CALM      30.23R
WHITE SULPHUR    N/A     37  30  75 N5        30.25R
$$

MTZ011-013-016-021-045-047-050-051-260500-
NORTH CENTRAL MONTANA

CITY           SKY/WX    TMP DP  RH WIND       PRES   REMARKS
HAVRE          MOCLDY    42  31  64 W7        30.18R
LEWISTOWN      FAIR      36  32  85 SW9       30.23R WCI  29
N BAR RANCH    FAIR      39  34  81 NW13      30.24R WCI  32
CHINOOK          N/A     45  32  61 CALM      30.17R
GEYSER         FAIR      37  31  78 SW13      30.23R WCI  29
GRASS RANGE    FAIR      42  35  75 W13       30.19R
STANFORD       FAIR      40  30  67 W8        30.24R
$$

MTZ017>020-022>027-061-062-260500-
NORTHEAST MONTANA

CITY           SKY/WX    TMP DP  RH WIND       PRES   REMARKS
GLASGOW        FAIR      49  30  48 N8        30.09R
GLENDIVE       FAIR      51  30  44 N17       30.05R
JORDAN           N/A     49  33  54 NW10      30.12R
MALTA          CLEAR     50  30  46 N14       30.12R
SIDNEY         FAIR      52  30  43 N15       30.03R
WOLF POINT     MOCLDY    50  32  50 NW8       30.07R
PLENTYWOOD       N/A     46  30  53 CALM      30.05R
POPLAR           N/A     52  30  43 N6        30.07R
$$

MTZ028>42-056>058-260500-
SOUTHCENTRAL AND SOUTHEAST MONTANA

CITY           SKY/WX    TMP DP  RH WIND       PRES   REMARKS
BAKER          FAIR      48  34  58 N15       30.02R
BILLINGS       FAIR      47  36  65 SW5       30.22R
LIVINGSTON     FAIR      43  33  68 N6        30.24R
MILES CITY     FAIR      54  33  45 N22       30.07R
BIG TIMBER     CLEAR     43  32  65 S5        30.26R
FORSYTH          N/A     55  34  44 W10       30.12R
HARLOWTON      FAIR      39  29  66 W5        30.24R
LAUREL           N/A     46  34  61 NW13      30.24R
$$

REGIONAL REPORTS...DAKOTAS

CITY           SKY/WX    TMP DP  RH WIND       PRES   REMARKS
WILLISTON      FAIR      52  36  54 N16       30.02R
MINOT          FAIR      53  36  52 NW18      29.91R
DICKINSON      FAIR      52  31  44 N14       29.94R
BEACH          FAIR      52  27  37 N18G24    30.04R
CROSBY         FAIR      43  30  61 NW8       30.02R
TIOGA          FAIR      48  32  53 N18       30.00R
WATFORD CITY   FAIR      52  34  50 N15G21    29.99R
BISMARCK       FAIR      55  31  39 NW8       29.82R
GRAND FORKS    MOCLDY    47  40  76 S10       29.74F
FARGO          FAIR      53  36  52 S17       29.80F
BUFFALO SD       N/A     56  30  37 NW22G30   29.89R
RAPID CITY     FAIR      53  33  46 N17       29.94R
$$

REGIONAL REPORTS...WYOMING/IDAHO/WASHINGTON

CITY           SKY/WX    TMP DP  RH WIND       PRES   REMARKS
GILLETTE       FAIR      51  30  44 N26G36    30.08R
SHERIDAN       FAIR      50  32  50 NW20      30.18R
BUFFALO WY     FAIR      50  29  44 NW35G48   30.14R
CODY           LGT RAIN  42  36  79 N15G22    30.26R
YELLOWSTONE LA   N/A     34  27  75 CALM      30.27R
IDAHO FALLS    FAIR      50  32  50 NE7       30.13R
SALMON         FAIR      57  24  28 E5        30.16R
BOISE          FAIR      64  34  32 E5        30.09R
SPOKANE        FAIR      65  26  23 CALM      30.11R
$$

REGIONAL REPORTS...ALBERTA

CITY           SKY/WX    TMP DP  RH WIND       PRES   REMARKS
CALGARY        PTCLDY    48  28  46 SE9       30.13R
EDMONTON       CLEAR     52  21  30 S6        30.03S
FORT MCMURRAY  PTCLDY    52  23  32 SW10      29.87S
HIGH LEVEL     MOCLDY    59  27  29 VRB2      29.84R
LETHBRIDGE     PTCLDY    43  30  61 S10       30.16S
LLOYDMINSTER   PTCLDY    41  27  56 W10       30.05S
MEDICINE HAT   CLEAR     45  25  45 SW5       30.15R
ONEFOUR          N/A     41  28  60 NW7         N/A
PEACE RIVER    PTCLDY    48  36  61 SW7       29.96S
PINCHER CREEK  CLEAR     41  30  65 S6        30.16S
WATERTON GATE    N/A     39  28  65 SW5         N/A
$$

REGIONAL REPORTS...SASKATCHEWAN

CITY           SKY/WX    TMP DP  RH WIND       PRES   REMARKS
CORONACH         N/A     39  30  70 W7          N/A
CYPRESS HILLS    N/A     39  21  48 NW1         N/A
ESTEVAN        PTCLDY    41  28  60 N9        30.00R
MOOSE JAW        N/A     37  23  56 W3          N/A
PRINCE ALBERT  PTCLDY    37  27  65 W3        30.05R
REGINA         CLEAR     41  25  52 NW8       30.05R
ROCKGLEN         N/A     43  30  61 NW6         N/A
SASKATOON      PTCLDY    37  27  65 NW5       30.08R
SWIFT CURRENT  CLEAR     45  25  45 NW6       30.10R
VAL MARIE        N/A     39  28  65 NW8         N/A
$$



USA.gov is the U.S. government's official web portal to all federal, state and local government web resources and services.